Weather History for KIRK - January, 2015

Change the Weather History Date:

Thursday, January 22, 2015

  Actual Average Record
Temperature  
Mean Temperature 27 °F 26 °F  
Max Temperature 32 °F 36 °F 69 °F (1967)
Min Temperature 21 °F 17 °F -20 °F (1930)
Degree Days  
Heating Degree Days 38 39  
Month to date heating degree days 876 858  
Since 1 July heating degree days 3167 3201  
Cooling Degree Days 0 0  
Month to date cooling degree days 0 0  
Year to date cooling degree days 0 0  
Moisture  
Dew Point 23 °F    
Average Humidity 83    
Maximum Humidity 100    
Minimum Humidity 66    
Precipitation  
Precipitation 0.00 in 0.04 in 1.68 in (1929)
Month to date precipitation 0.40 0.76  
Year to date precipitation 0.40 0.76  
Sea Level Pressure  
Sea Level Pressure 30.44 in    
Wind  
Wind Speed 4 mph (NW)    
Max Wind Speed 12 mph    
Max Gust Speed 15 mph    
Visibility 10 miles    
Events      
T = Trace of Precipitation, MM = Missing Value Source: NWS Daily Summary

Daily Weather History Graph

Daily Weather History Graph

Search for Another Location

Airport or City:

Trip Planner

Search our weather history database for the weather conditions in past years. The results will help you decide how hot, cold, wet, or windy it might be!

Date:

Astronomy

Jan. 22, 2015 Rise Set
Actual Time 7:26 AM CST 5:16 PM CST
Civil Twilight 6:57 AM CST 5:46 PM CST
Nautical Twilight 6:24 AM CST 6:19 PM CST
Astronomical Twilight 5:52 AM CST 6:51 PM CST
Moon 8:39 AM CST 8:17 PM CST
Length of Visible Light 10h 48m
Length of Day
9h 50m
Waxing Crescent, 7% of the Moon is Illuminated
Jan 22
Waxing Crescent
Jan 26
First Quarter
Feb 3
Full
Feb 11
Last Quarter
Feb 18
New

Hourly Weather History & Observations

Time (CST) Temp. Windchill Dew Point Humidity Pressure Visibility Wind Dir Wind Speed Gust Speed Precip Events Conditions
12:55 AM 26.1 °F 20.5 °F 23.0 °F 88% 30.36 in 10.0 mi NW 4.6 mph - N/A   Clear
1:17 AM 27.0 °F 21.6 °F 24.1 °F 89% 30.33 in 10.0 mi WNW 4.6 mph - N/A   Mostly Cloudy
1:50 AM 26.6 °F 21.2 °F 24.8 °F 93% 30.34 in 10.0 mi WNW 4.6 mph - N/A   Scattered Clouds
1:55 AM 25.0 °F 19.3 °F 24.1 °F 96% 30.38 in 10.0 mi WNW 4.6 mph - N/A   Partly Cloudy
2:51 AM 24.8 °F 19.1 °F 23.0 °F 93% 30.36 in 10.0 mi WNW 4.6 mph - N/A   Mostly Cloudy
2:55 AM 24.1 °F 17.0 °F 23.0 °F 96% 30.41 in 10.0 mi WNW 5.8 mph - N/A   Mostly Cloudy
3:02 AM 24.1 °F 18.2 °F 21.9 °F 91% 30.37 in 9.0 mi WNW 4.6 mph - N/A   Scattered Clouds
3:55 AM 21.9 °F 15.7 °F 21.0 °F 96% 30.42 in 9.0 mi WNW 4.6 mph - N/A   Mostly Cloudy
4:55 AM 23.0 °F 17.0 °F 21.9 °F 96% 30.44 in 9.0 mi WNW 4.6 mph - N/A   Mostly Cloudy
5:06 AM 23.0 °F 15.8 °F 21.0 °F 92% 30.40 in 10.0 mi WNW 5.8 mph - N/A   Scattered Clouds
5:47 AM 24.1 °F 19.7 °F 21.9 °F 91% 30.42 in 10.0 mi WNW 3.5 mph - N/A   Mostly Cloudy
5:55 AM 24.1 °F 19.7 °F 21.9 °F 91% 30.46 in 10.0 mi WNW 3.5 mph - N/A   Overcast
6:55 AM 26.1 °F 21.9 °F 24.1 °F 92% 30.48 in 10.0 mi WNW 3.5 mph - N/A   Overcast
7:55 AM 28.4 °F 22.2 °F 24.8 °F 86% 30.45 in 10.0 mi NNW 5.8 mph - N/A   Overcast
8:55 AM 28.9 °F 22.8 °F 24.1 °F 82% 30.52 in 10.0 mi NNW 5.8 mph - N/A   Overcast
9:55 AM 30.0 °F 22.4 °F 25.0 °F 82% 30.54 in 10.0 mi North 8.1 mph - N/A   Overcast
10:55 AM 30.0 °F 23.2 °F 26.1 °F 85% 30.53 in 10.0 mi NNW 6.9 mph - N/A   Overcast
11:55 AM 30.9 °F 23.5 °F 24.1 °F 76% 30.53 in 10.0 mi WNW 8.1 mph - N/A   Overcast
12:55 PM 30.9 °F 25.2 °F 24.1 °F 76% 30.51 in 10.0 mi NNW 5.8 mph - N/A   Overcast
1:55 PM 32.0 °F 27.5 °F 23.0 °F 69% 30.45 in 10.0 mi West 4.6 mph - N/A   Overcast
2:55 PM 32.0 °F 25.6 °F 24.8 °F 75% 30.43 in 10.0 mi NNW 6.9 mph - N/A   Overcast
3:55 PM 32.0 °F 25.6 °F 23.0 °F 69% 30.48 in 10.0 mi North 6.9 mph - N/A   Overcast
4:55 PM 30.9 °F 26.2 °F 23.0 °F 72% 30.48 in 10.0 mi North 4.6 mph - N/A   Overcast
5:55 PM 30.0 °F - 23.0 °F 75% 30.49 in 10.0 mi Calm Calm - N/A   Overcast
6:55 PM 30.0 °F - 23.0 °F 75% 30.48 in 10.0 mi Calm Calm - N/A   Overcast
7:55 PM 30.0 °F - 23.0 °F 75% 30.48 in 10.0 mi Calm Calm - N/A   Overcast
8:55 PM 30.0 °F 26.5 °F 23.0 °F 75% 30.46 in 10.0 mi WNW 3.5 mph - N/A   Overcast
9:55 PM 30.0 °F 26.5 °F 21.9 °F 72% 30.45 in 10.0 mi West 3.5 mph - N/A   Overcast
10:55 PM 30.0 °F - 23.0 °F 75% 30.45 in 10.0 mi Calm Calm - N/A   Overcast
11:55 PM 28.9 °F - 21.9 °F 75% 30.42 in 10.0 mi Calm Calm - N/A   Overcast